Flag for Niger Weather past 2 weeks in Niamey, Niger

Now
84 °F

Passing clouds.


Feels Like: 90 °F
Forecast: 77 / 94 °F
Wind: 14 mph from Southwest

Location: Niamey-Aero

Current Time: Jul 29, 2015 at 10:51:43 AM

Latest Report: Jul 29, 2015 at 10:00 AM


Visibility: N/A

Pressure: 29.98 "Hg

Humidity: 66%

Dew point: 72 °F

Location of NiameyLocation

Historic Weather in Niamey — Graph

°F

Niamey temperature yesterday

Maximum temperature yesterday: 90 °F (at 3:00 PM)
Minimum temperature yesterday: 75 °F (at 3:00 AM)
Average temperature yesterday: 82 °F

Past Weeks' High & Low Weather Summary

 TemperatureHumidityPressure
High99 °F (Jul 14, 4:00 PM)100% (Jul 15, 8:00 AM)30.07 "Hg (Jul 15, 8:00 AM)
Low72 °F (Jul 15, 7:00 AM)30% (Jul 18, 3:00 PM)29.71 "Hg (Jul 20, 5:00 AM)
Average84 °F65%29.89 "Hg
* Reported Jul 14 9:00 AM — Jul 29 9:00 AM, Niamey, Weather by CustomWeather, © 2015

Note: Actual official high and low records may vary slightly from our data, if they occured in-between our weather recording intervals... More about our weather records

Advertising

Niamey weather history for previous 24 hours

 ConditionsComfort  
Time TempWeatherWind HumidityBarometerVisibility
9:00 AM
Wed, Jul 29
81 °FPassing clouds.12 mph74%29.98 "HgN/A
8:00 AM79 °FPassing clouds.5 mph79%29.98 "HgN/A
7:00 AM77 °FSunny.6 mph89%29.98 "Hg10 mi
6:00 AM77 °FPassing clouds.6 mph83%29.98 "HgN/A
5:00 AM79 °FPassing clouds.7 mph79%29.95 "HgN/A
4:00 AM79 °FPassing clouds.7 mph79%29.95 "HgN/A
3:00 AM79 °FPassing clouds.6 mph79%29.95 "HgN/A
2:00 AM81 °FPassing clouds.5 mph74%29.95 "HgN/A
1:00 AM82 °FPassing clouds.6 mph70%29.95 "HgN/A
12:00 AM82 °FClear.6 mph66%29.98 "Hg10 mi
11:00 PM
Tue, Jul 28
82 °FClear.6 mph66%29.95 "Hg10 mi
10:00 PM84 °FClear.3 mph62%29.92 "Hg10 mi
9:00 PM84 °FPassing clouds.5 mph58%29.89 "HgN/A
8:00 PM86 °FPassing clouds.6 mph55%29.89 "HgN/A
7:00 PM88 °FPassing clouds.5 mph49%29.86 "HgN/A
6:00 PM90 °FScattered clouds.8 mph46%29.86 "HgN/A
5:00 PM90 °FScattered clouds.9 mph46%29.86 "HgN/A
4:00 PM90 °FPartly sunny.9 mph46%29.89 "HgN/A
3:00 PM90 °FPartly sunny.13 mph49%29.89 "HgN/A
2:00 PM88 °FPartly sunny.12 mph52%29.92 "HgN/A
1:00 PM88 °FPartly sunny.10 mph52%29.92 "HgN/A
12:00 PM86 °FScattered clouds.10 mph59%29.95 "HgN/A
11:00 AM84 °FPartly sunny.10 mph66%29.98 "HgN/A
10:00 AM79 °FPartly sunny.9 mph79%29.98 "HgN/A
Weather by CustomWeather, © 2015

See weather overviewHow to use our weather pages